Time,TemperatureF,DewpointF,PressureIn,WindDirection,WindDirectionDegrees,WindSpeedMPH,WindSpeedGustMPH,Humidity,HourlyPrecipIn,Conditions,Clouds,dailyrainin,SoftwareType,DateUTC
2013-05-10 00:00:00,52.1,46.2,30.16,SE,135,8.7,8.7,80,0.00,,,0.00,WUHU216HW,2013-05-10 07:00:00,
2013-05-10 00:05:00,51.9,46.3,30.16,West,270,0.0,8.7,81,0.00,,,0.00,WUHU216HW,2013-05-10 07:05:00,
2013-05-10 00:11:00,51.9,46.3,30.16,WNW,293,3.5,6.9,81,0.00,,,0.00,WUHU216HW,2013-05-10 07:11:00,
2013-05-10 00:16:00,51.8,46.1,30.16,SE,135,7.3,7.3,81,0.00,,,0.00,WUHU216HW,2013-05-10 07:16:00,
2013-05-10 00:21:00,51.8,46.1,30.16,SSE,158,3.5,7.3,81,0.00,,,0.00,WUHU216HW,2013-05-10 07:21:00,
2013-05-10 00:26:00,51.6,45.9,30.16,SSE,158,4.9,6.9,81,0.00,,,0.00,WUHU216HW,2013-05-10 07:26:00,
2013-05-10 00:31:00,51.6,45.9,30.16,SE,135,0.0,6.9,81,0.00,,,0.00,WUHU216HW,2013-05-10 07:31:00,
2013-05-10 00:36:00,51.6,45.9,30.16,SE,135,4.9,4.9,81,0.00,,,0.00,WUHU216HW,2013-05-10 07:36:00,
2013-05-10 00:41:00,51.8,46.1,30.16,SSW,203,2.9,6.9,81,0.00,,,0.00,WUHU216HW,2013-05-10 07:41:00,
2013-05-10 00:46:00,51.8,46.1,30.17,SSW,203,0.0,6.9,81,0.00,,,0.00,WUHU216HW,2013-05-10 07:46:00,
2013-05-10 00:51:00,51.8,46.1,30.16,SSE,158,3.8,4.2,81,0.00,,,0.00,WUHU216HW,2013-05-10 07:51:00,
2013-05-10 00:57:00,51.6,45.9,30.16,SSE,158,2.9,4.2,81,0.00,,,0.00,WUHU216HW,2013-05-10 07:57:00,
2013-05-10 01:02:00,51.6,45.9,30.16,WSW,248,5.1,5.1,81,0.00,,,0.00,WUHU216HW,2013-05-10 08:02:00,
2013-05-10 01:07:00,51.8,46.1,30.16,SE,135,1.5,5.1,81,0.00,,,0.00,WUHU216HW,2013-05-10 08:07:00,
2013-05-10 01:12:00,51.8,46.1,30.16,SSE,158,4.9,4.9,81,0.00,,,0.00,WUHU216HW,2013-05-10 08:12:00,
2013-05-10 01:17:00,51.8,46.1,30.16,SE,135,2.9,4.9,81,0.00,,,0.00,WUHU216HW,2013-05-10 08:17:00,
2013-05-10 01:22:00,51.8,46.1,30.16,SW,225,0.8,4.9,81,0.00,,,0.00,WUHU216HW,2013-05-10 08:22:00,
2013-05-10 01:27:00,51.8,46.1,30.16,South,180,5.1,5.1,81,0.00,,,0.00,WUHU216HW,2013-05-10 08:27:00,
2013-05-10 01:32:00,51.8,46.1,30.16,South,180,4.4,5.1,81,0.00,,,0.00,WUHU216HW,2013-05-10 08:32:00,
2013-05-10 01:37:00,51.8,46.1,30.15,SE,135,0.0,5.1,81,0.00,,,0.00,WUHU216HW,2013-05-10 08:37:00,
2013-05-10 01:42:00,51.8,46.1,30.15,SE,135,5.8,8.0,81,0.00,,,0.00,WUHU216HW,2013-05-10 08:42:00,
2013-05-10 01:47:00,51.6,45.9,30.15,SE,135,3.8,8.0,81,0.00,,,0.00,WUHU216HW,2013-05-10 08:47:00,
2013-05-10 01:52:00,51.6,45.9,30.15,South,180,1.3,6.9,81,0.00,,,0.00,WUHU216HW,2013-05-10 08:52:00,
2013-05-10 01:57:00,51.6,45.9,30.15,SSE,158,7.6,7.6,81,0.00,,,0.00,WUHU216HW,2013-05-10 08:57:00,
2013-05-10 02:02:00,51.6,45.9,30.15,South,180,5.5,7.6,81,0.00,,,0.00,WUHU216HW,2013-05-10 09:02:00,
2013-05-10 02:08:00,51.6,46.2,30.15,SE,135,3.3,7.6,82,0.00,,,0.00,WUHU216HW,2013-05-10 09:08:00,
2013-05-10 02:13:00,51.6,46.2,30.14,SSE,158,2.9,5.8,82,0.00,,,0.00,WUHU216HW,2013-05-10 09:13:00,
2013-05-10 02:18:00,51.6,46.2,30.14,SE,135,2.6,3.3,82,0.00,,,0.00,WUHU216HW,2013-05-10 09:18:00,
2013-05-10 02:23:00,51.6,46.2,30.14,SE,135,3.5,3.5,82,0.00,,,0.00,WUHU216HW,2013-05-10 09:23:00,
2013-05-10 02:28:00,51.6,46.2,30.14,SSE,158,2.4,3.5,82,0.00,,,0.00,WUHU216HW,2013-05-10 09:28:00,
2013-05-10 02:33:00,51.6,46.2,30.14,South,180,1.3,4.0,82,0.00,,,0.00,WUHU216HW,2013-05-10 09:33:00,
2013-05-10 02:38:00,51.6,46.2,30.14,SSE,158,1.3,4.0,82,0.00,,,0.00,WUHU216HW,2013-05-10 09:38:00,
2013-05-10 02:43:00,51.6,46.2,30.14,SW,225,0.0,2.9,82,0.00,,,0.00,WUHU216HW,2013-05-10 09:43:00,
2013-05-10 02:48:00,51.6,46.2,30.14,SSE,158,2.4,3.3,82,0.00,,,0.00,WUHU216HW,2013-05-10 09:48:00,
2013-05-10 02:53:00,51.6,46.2,30.14,South,180,5.1,6.0,82,0.00,,,0.00,WUHU216HW,2013-05-10 09:53:00,
2013-05-10 02:59:00,51.4,46.1,30.14,SSE,158,8.0,8.0,82,0.00,,,0.00,WUHU216HW,2013-05-10 09:59:00,
2013-05-10 03:04:00,51.4,46.1,30.14,ESE,113,3.8,8.0,82,0.00,,,0.00,WUHU216HW,2013-05-10 10:04:00,
2013-05-10 03:09:00,51.4,46.1,30.14,SSW,203,6.9,6.9,82,0.00,,,0.00,WUHU216HW,2013-05-10 10:09:00,
2013-05-10 03:14:00,51.4,46.4,30.14,ESE,113,2.6,6.9,83,0.00,,,0.00,WUHU216HW,2013-05-10 10:14:00,
2013-05-10 03:19:00,51.4,46.4,30.14,South,180,1.5,6.0,83,0.00,,,0.00,WUHU216HW,2013-05-10 10:19:00,
2013-05-10 03:24:00,51.2,46.2,30.14,SE,135,0.0,5.8,83,0.00,,,0.00,WUHU216HW,2013-05-10 10:24:00,
2013-05-10 03:29:00,51.2,46.2,30.14,SSE,158,2.4,5.8,83,0.00,,,0.00,WUHU216HW,2013-05-10 10:29:00,
2013-05-10 03:34:00,51.2,46.2,30.13,WSW,248,3.1,3.1,83,0.00,,,0.00,WUHU216HW,2013-05-10 10:34:00,
2013-05-10 03:39:00,51.0,46.0,30.12,SSW,203,4.0,4.0,83,0.00,,,0.00,WUHU216HW,2013-05-10 10:39:00,
2013-05-10 03:44:00,51.0,46.0,30.12,SSE,158,4.4,5.8,83,0.00,,,0.00,WUHU216HW,2013-05-10 10:44:00,
2013-05-10 03:49:00,51.0,46.3,30.12,South,180,3.3,5.8,84,0.00,,,0.00,WUHU216HW,2013-05-10 10:49:00,
2013-05-10 03:55:00,51.0,46.3,30.12,SSW,203,5.1,6.2,84,0.00,,,0.00,WUHU216HW,2013-05-10 10:55:00,
2013-05-10 04:00:00,51.0,46.3,30.12,SSE,158,2.2,6.2,84,0.00,,,0.00,WUHU216HW,2013-05-10 11:00:00,
2013-05-10 04:05:00,51.0,46.3,30.12,WSW,248,0.0,5.1,84,0.00,,,0.00,WUHU216HW,2013-05-10 11:05:00,
2013-05-10 04:10:00,51.0,46.3,30.11,SE,135,0.0,2.2,84,0.00,,,0.00,WUHU216HW,2013-05-10 11:10:00,
2013-05-10 04:15:00,51.0,46.3,30.11,SE,135,2.9,2.9,84,0.00,,,0.00,WUHU216HW,2013-05-10 11:15:00,
2013-05-10 04:20:00,50.9,46.1,30.11,SSE,158,0.8,2.9,84,0.00,,,0.00,WUHU216HW,2013-05-10 11:20:00,
2013-05-10 04:25:00,50.9,46.1,30.11,SSW,203,0.8,0.8,84,0.00,,,0.00,WUHU216HW,2013-05-10 11:25:00,
2013-05-10 04:31:00,50.9,46.1,30.11,SSE,158,3.3,4.2,84,0.00,,,0.00,WUHU216HW,2013-05-10 11:31:00,
2013-05-10 04:36:00,50.9,46.1,30.11,SE,135,5.8,5.8,84,0.00,,,0.00,WUHU216HW,2013-05-10 11:36:00,
2013-05-10 04:41:00,51.0,46.3,30.11,SSE,158,0.0,6.2,84,0.00,,,0.00,WUHU216HW,2013-05-10 11:41:00,
2013-05-10 04:46:00,50.9,46.1,30.11,SSE,158,1.1,6.2,84,0.00,,,0.00,WUHU216HW,2013-05-10 11:46:00,
2013-05-10 04:51:00,50.9,46.1,30.11,South,180,5.8,6.0,84,0.00,,,0.00,WUHU216HW,2013-05-10 11:51:00,
2013-05-10 04:56:00,50.9,46.1,30.11,SE,135,6.4,6.4,84,0.00,,,0.00,WUHU216HW,2013-05-10 11:56:00,
2013-05-10 05:01:00,50.9,46.1,30.11,South,180,0.0,6.4,84,0.00,,,0.00,WUHU216HW,2013-05-10 12:01:00,
2013-05-10 05:06:00,50.9,46.1,30.11,South,180,0.0,3.5,84,0.00,,,0.00,WUHU216HW,2013-05-10 12:06:00,
2013-05-10 05:11:00,50.9,46.1,30.11,South,180,0.0,2.9,84,0.00,,,0.00,WUHU216HW,2013-05-10 12:11:00,
2013-05-10 05:16:00,50.9,46.1,30.11,SSE,158,2.2,5.3,84,0.00,,,0.00,WUHU216HW,2013-05-10 12:16:00,
2013-05-10 05:22:00,50.9,46.1,30.11,South,180,1.7,5.3,84,0.00,,,0.00,WUHU216HW,2013-05-10 12:22:00,
2013-05-10 05:27:00,51.0,46.3,30.11,ESE,113,0.0,3.8,84,0.00,,,0.00,WUHU216HW,2013-05-10 12:27:00,
2013-05-10 05:32:00,51.0,46.3,30.11,SSE,158,0.0,3.8,84,0.00,,,0.00,WUHU216HW,2013-05-10 12:32:00,
2013-05-10 05:37:00,51.0,46.3,30.11,SE,135,0.0,3.3,84,0.00,,,0.00,WUHU216HW,2013-05-10 12:37:00,
2013-05-10 05:42:00,51.0,46.3,30.11,SE,135,2.2,3.3,84,0.00,,,0.00,WUHU216HW,2013-05-10 12:42:00,
2013-05-10 05:47:00,51.0,46.3,30.11,SE,135,2.4,3.3,84,0.00,,,0.00,WUHU216HW,2013-05-10 12:47:00,
2013-05-10 05:52:00,51.0,46.3,30.11,SSE,158,0.0,4.4,84,0.00,,,0.00,WUHU216HW,2013-05-10 12:52:00,
2013-05-10 05:57:00,51.0,46.3,30.11,South,180,0.0,4.4,84,0.00,,,0.00,WUHU216HW,2013-05-10 12:57:00,
2013-05-10 06:02:00,51.0,46.3,30.11,South,180,4.0,4.4,84,0.00,,,0.00,WUHU216HW,2013-05-10 13:02:00,
2013-05-10 06:07:00,51.0,46.3,30.11,SSE,158,0.0,5.1,84,0.00,,,0.00,WUHU216HW,2013-05-10 13:07:00,
2013-05-10 06:13:00,51.0,46.3,30.11,SSE,158,3.5,5.1,84,0.00,,,0.00,WUHU216HW,2013-05-10 13:13:00,
2013-05-10 06:18:00,51.0,46.3,30.11,SSE,158,1.3,3.5,84,0.00,,,0.00,WUHU216HW,2013-05-10 13:18:00,
2013-05-10 06:23:00,51.0,46.3,30.12,South,180,4.4,4.4,84,0.00,,,0.00,WUHU216HW,2013-05-10 13:23:00,
2013-05-10 06:28:00,51.2,46.5,30.12,SE,135,2.6,4.4,84,0.00,,,0.00,WUHU216HW,2013-05-10 13:28:00,
2013-05-10 06:33:00,51.2,46.5,30.12,SSE,158,3.1,4.4,84,0.00,,,0.00,WUHU216HW,2013-05-10 13:33:00,
2013-05-10 06:38:00,51.2,46.5,30.12,SSE,158,2.6,3.1,84,0.00,,,0.00,WUHU216HW,2013-05-10 13:38:00,
2013-05-10 06:43:00,51.4,46.7,30.13,South,180,0.0,2.6,84,0.00,,,0.00,WUHU216HW,2013-05-10 13:43:00,
2013-05-10 06:48:00,51.4,46.7,30.13,SE,135,1.3,2.9,84,0.00,,,0.00,WUHU216HW,2013-05-10 13:48:00,
2013-05-10 06:53:00,51.4,46.7,30.14,SW,225,2.6,2.9,84,0.00,,,0.00,WUHU216HW,2013-05-10 13:53:00,
2013-05-10 06:58:00,51.4,46.7,30.14,SSW,203,1.5,2.6,84,0.00,,,0.00,WUHU216HW,2013-05-10 13:58:00,
2013-05-10 07:03:00,51.6,46.9,30.13,SE,135,0.0,2.6,84,0.00,,,0.00,WUHU216HW,2013-05-10 14:03:00,
2013-05-10 07:08:00,51.4,46.7,30.14,SSE,158,0.0,3.3,84,0.00,,,0.00,WUHU216HW,2013-05-10 14:08:00,
2013-05-10 07:13:00,51.6,46.9,30.14,South,180,2.9,3.3,84,0.00,,,0.00,WUHU216HW,2013-05-10 14:13:00,
2013-05-10 07:18:00,51.6,46.9,30.14,South,180,1.7,5.5,84,0.00,,,0.00,WUHU216HW,2013-05-10 14:18:00,
2013-05-10 07:24:00,51.6,46.9,30.14,SSE,158,0.0,5.5,84,0.00,,,0.00,WUHU216HW,2013-05-10 14:24:00,
2013-05-10 07:29:00,51.6,46.9,30.14,SW,225,2.2,3.1,84,0.00,,,0.00,WUHU216HW,2013-05-10 14:29:00,
2013-05-10 07:34:00,51.8,47.0,30.14,SW,225,0.0,3.8,84,0.00,,,0.00,WUHU216HW,2013-05-10 14:34:00,
2013-05-10 07:39:00,51.9,47.2,30.14,SSE,158,2.4,3.8,84,0.00,,,0.00,WUHU216HW,2013-05-10 14:39:00,
2013-05-10 07:44:00,51.9,47.2,30.14,SE,135,3.5,3.5,84,0.00,,,0.00,WUHU216HW,2013-05-10 14:44:00,
2013-05-10 07:49:00,51.9,47.2,30.14,SSE,158,0.0,3.5,84,0.00,,,0.00,WUHU216HW,2013-05-10 14:49:00,
2013-05-10 07:54:00,52.1,47.4,30.14,South,180,4.6,4.6,84,0.00,,,0.00,WUHU216HW,2013-05-10 14:54:00,
2013-05-10 07:59:00,52.1,47.4,30.15,South,180,1.5,4.6,84,0.00,,,0.00,WUHU216HW,2013-05-10 14:59:00,
2013-05-10 08:04:00,52.3,47.6,30.14,SSE,158,5.8,5.8,84,0.00,,,0.00,WUHU216HW,2013-05-10 15:04:00,
2013-05-10 08:09:00,52.3,47.6,30.14,WSW,248,0.0,5.8,84,0.00,,,0.00,WUHU216HW,2013-05-10 15:09:00,
2013-05-10 08:14:00,52.3,47.3,30.15,WSW,248,2.2,5.8,83,0.00,,,0.00,WUHU216HW,2013-05-10 15:14:00,
2013-05-10 08:19:00,52.3,47.3,30.15,SSE,158,2.6,2.6,83,0.00,,,0.00,WUHU216HW,2013-05-10 15:19:00,
2013-05-10 08:25:00,52.5,47.4,30.15,SE,135,0.0,3.8,83,0.00,,,0.00,WUHU216HW,2013-05-10 15:25:00,
2013-05-10 08:30:00,52.5,47.4,30.15,SSE,158,1.3,3.8,83,0.00,,,0.00,WUHU216HW,2013-05-10 15:30:00,
2013-05-10 08:35:00,52.7,47.6,30.15,SSE,158,0.0,5.3,83,0.00,,,0.00,WUHU216HW,2013-05-10 15:35:00,
2013-05-10 08:40:00,52.7,47.6,30.15,SE,135,2.6,5.3,83,0.00,,,0.00,WUHU216HW,2013-05-10 15:40:00,
2013-05-10 08:45:00,52.7,47.6,30.15,SSE,158,3.3,4.4,83,0.00,,,0.00,WUHU216HW,2013-05-10 15:45:00,
2013-05-10 08:50:00,52.8,47.6,30.15,SSE,158,7.8,7.8,83,0.00,,,0.00,WUHU216HW,2013-05-10 15:50:00,
2013-05-10 08:55:00,52.8,47.8,30.15,SE,135,4.6,7.8,83,0.00,,,0.00,WUHU216HW,2013-05-10 15:55:00,
2013-05-10 09:00:00,52.8,47.8,30.15,South,180,2.6,7.8,83,0.00,,,0.00,WUHU216HW,2013-05-10 16:00:00,
2013-05-10 09:05:00,53.2,48.0,30.15,SW,225,2.9,4.6,83,0.00,,,0.00,WUHU216HW,2013-05-10 16:05:00,
2013-05-10 09:11:00,53.2,48.2,30.15,SE,135,2.9,2.9,83,0.00,,,0.00,WUHU216HW,2013-05-10 16:11:00,
2013-05-10 09:16:00,53.2,48.2,30.15,SSE,158,3.1,4.9,83,0.00,,,0.00,WUHU216HW,2013-05-10 16:16:00,
2013-05-10 09:21:00,53.4,48.3,30.14,SSE,158,7.3,7.3,83,0.00,,,0.00,WUHU216HW,2013-05-10 16:21:00,
2013-05-10 09:26:00,53.7,48.7,30.15,SE,135,3.8,7.3,83,0.00,,,0.00,WUHU216HW,2013-05-10 16:26:00,
2013-05-10 09:31:00,53.7,48.4,30.15,SSE,158,2.0,7.3,82,0.00,,,0.00,WUHU216HW,2013-05-10 16:31:00,
2013-05-10 09:36:00,53.7,48.4,30.15,SE,135,4.2,4.9,82,0.00,,,0.00,WUHU216HW,2013-05-10 16:36:00,
2013-05-10 09:41:00,53.9,48.5,30.15,South,180,0.0,4.2,82,0.00,,,0.00,WUHU216HW,2013-05-10 16:41:00,
2013-05-10 09:46:00,54.1,48.7,30.15,SW,225,3.5,5.1,82,0.00,,,0.00,WUHU216HW,2013-05-10 16:46:00,
2013-05-10 09:51:00,54.5,49.1,30.15,SSW,203,1.7,6.0,82,0.00,,,0.00,WUHU216HW,2013-05-10 16:51:00,
2013-05-10 09:57:00,54.6,48.9,30.15,SSE,158,7.3,7.3,81,0.00,,,0.00,WUHU216HW,2013-05-10 16:57:00,
2013-05-10 10:02:00,54.8,49.1,30.15,SE,135,6.9,7.3,81,0.00,,,0.00,WUHU216HW,2013-05-10 17:02:00,
2013-05-10 10:07:00,55.2,49.4,30.16,SSE,158,5.1,7.3,81,0.00,,,0.00,WUHU216HW,2013-05-10 17:07:00,
2013-05-10 10:12:00,55.4,49.6,30.16,SE,135,1.1,6.9,81,0.00,,,0.00,WUHU216HW,2013-05-10 17:12:00,
2013-05-10 10:17:00,55.7,49.6,30.16,SW,225,2.6,6.2,80,0.00,,,0.00,WUHU216HW,2013-05-10 17:17:00,
2013-05-10 10:22:00,55.9,49.8,30.16,SW,225,5.1,7.3,80,0.00,,,0.00,WUHU216HW,2013-05-10 17:22:00,
2013-05-10 10:27:00,55.9,49.4,30.16,SSW,203,6.4,7.3,79,0.00,,,0.00,WUHU216HW,2013-05-10 17:27:00,
2013-05-10 10:32:00,55.7,49.6,30.17,WNW,293,0.0,6.4,80,0.00,,,0.00,WUHU216HW,2013-05-10 17:32:00,
2013-05-10 10:37:00,55.7,49.2,30.16,NNW,338,0.0,6.4,79,0.00,,,0.00,WUHU216HW,2013-05-10 17:37:00,
2013-05-10 10:43:00,55.5,49.1,30.16,SSW,203,6.0,6.0,79,0.00,,,0.00,WUHU216HW,2013-05-10 17:43:00,
2013-05-10 10:48:00,55.5,49.1,30.16,SSE,158,3.3,6.2,79,0.00,,,0.00,WUHU216HW,2013-05-10 17:48:00,
2013-05-10 10:53:00,55.9,49.6,30.16,SSW,203,2.2,6.2,80,0.00,,,0.00,WUHU216HW,2013-05-10 17:53:00,
2013-05-10 10:58:00,55.9,49.4,30.16,SSW,203,0.0,7.6,79,0.00,,,0.00,WUHU216HW,2013-05-10 17:58:00,
2013-05-10 11:03:00,56.1,49.6,30.17,SW,225,5.5,7.6,79,0.00,,,0.00,WUHU216HW,2013-05-10 18:03:00,
2013-05-10 11:08:00,56.3,49.8,30.16,SSW,203,0.0,5.5,79,0.00,,,0.00,WUHU216HW,2013-05-10 18:08:00,
2013-05-10 11:13:00,56.4,49.6,30.16,WNW,293,2.4,7.3,78,0.00,,,0.00,WUHU216HW,2013-05-10 18:13:00,
2013-05-10 11:18:00,56.8,50.0,30.17,SSW,203,5.3,7.3,78,0.00,,,0.00,WUHU216HW,2013-05-10 18:18:00,
2013-05-10 11:23:00,57.0,50.1,30.16,SSW,203,5.8,5.8,78,0.00,,,0.00,WUHU216HW,2013-05-10 18:23:00,
2013-05-10 11:28:00,57.3,50.5,30.16,SW,225,6.2,6.2,78,0.00,,,0.00,WUHU216HW,2013-05-10 18:28:00,
2013-05-10 11:33:00,57.7,50.5,30.17,SSW,203,10.0,10.0,77,0.00,,,0.00,WUHU216HW,2013-05-10 18:33:00,
2013-05-10 11:39:00,57.9,50.7,30.16,SSW,203,0.0,10.0,77,0.00,,,0.00,WUHU216HW,2013-05-10 18:39:00,
2013-05-10 11:44:00,58.2,51.0,30.17,SW,225,6.4,10.0,77,0.00,,,0.00,WUHU216HW,2013-05-10 18:44:00,
2013-05-10 11:49:00,58.1,50.5,30.17,SW,225,7.6,7.6,76,0.00,,,0.00,WUHU216HW,2013-05-10 18:49:00,
2013-05-10 11:54:00,58.2,50.7,30.17,SW,225,3.3,7.6,76,0.00,,,0.00,WUHU216HW,2013-05-10 18:54:00,
2013-05-10 11:59:00,58.2,50.7,30.16,West,270,0.0,3.3,76,0.00,,,0.00,WUHU216HW,2013-05-10 18:59:00,
2013-05-10 12:04:00,58.6,50.7,30.16,SSW,203,0.0,6.2,75,0.00,,,0.00,WUHU216HW,2013-05-10 19:04:00,
2013-05-10 12:09:00,58.8,50.9,30.16,SW,225,6.7,6.7,75,0.00,,,0.00,WUHU216HW,2013-05-10 19:09:00,
2013-05-10 12:14:00,58.8,50.9,30.16,South,180,0.0,6.7,75,0.00,,,0.00,WUHU216HW,2013-05-10 19:14:00,
2013-05-10 12:19:00,58.8,50.9,30.16,NE,45,0.0,6.7,75,0.00,,,0.00,WUHU216HW,2013-05-10 19:19:00,
2013-05-10 12:24:00,58.8,50.9,30.16,SSW,203,1.7,6.0,75,0.00,,,0.00,WUHU216HW,2013-05-10 19:24:00,
2013-05-10 12:30:00,59.3,51.0,30.16,South,180,0.0,6.7,74,0.00,,,0.00,WUHU216HW,2013-05-10 19:30:00,
2013-05-10 12:35:00,59.3,51.0,30.16,SW,225,6.9,7.6,74,0.00,,,0.00,WUHU216HW,2013-05-10 19:35:00,
2013-05-10 12:40:00,59.3,51.0,30.16,South,180,2.2,7.6,74,0.00,,,0.00,WUHU216HW,2013-05-10 19:40:00,
2013-05-10 12:45:00,59.5,50.9,30.16,West,270,6.0,6.0,73,0.00,,,0.00,WUHU216HW,2013-05-10 19:45:00,
2013-05-10 12:50:00,59.9,51.2,30.16,SSE,158,3.1,6.0,73,0.00,,,0.00,WUHU216HW,2013-05-10 19:50:00,
2013-05-10 12:55:00,60.0,51.4,30.16,SSW,203,0.0,8.9,73,0.00,,,0.00,WUHU216HW,2013-05-10 19:55:00,
2013-05-10 13:00:00,60.0,51.4,30.17,South,180,1.5,8.9,73,0.00,,,0.00,WUHU216HW,2013-05-10 20:00:00,
2013-05-10 13:05:00,60.0,51.0,30.16,SSE,158,0.0,9.1,72,0.00,,,0.00,WUHU216HW,2013-05-10 20:05:00,
2013-05-10 13:10:00,60.0,51.0,30.16,SW,225,11.1,11.1,72,0.00,,,0.00,WUHU216HW,2013-05-10 20:10:00,
2013-05-10 13:15:00,59.9,50.9,30.16,SSW,203,2.0,11.1,72,0.00,,,0.00,WUHU216HW,2013-05-10 20:15:00,
2013-05-10 13:21:00,59.7,50.7,30.16,South,180,0.0,11.1,72,0.00,,,0.00,WUHU216HW,2013-05-10 20:21:00,
2013-05-10 13:26:00,59.5,50.5,30.16,SSW,203,4.0,7.6,72,0.00,,,0.00,WUHU216HW,2013-05-10 20:26:00,
2013-05-10 13:31:00,59.5,50.5,30.16,ESE,113,4.4,4.9,72,0.00,,,0.00,WUHU216HW,2013-05-10 20:31:00,
2013-05-10 13:36:00,60.0,51.0,30.16,West,270,2.2,7.8,72,0.00,,,0.00,WUHU216HW,2013-05-10 20:36:00,
2013-05-10 13:41:00,60.0,51.0,30.16,SSE,158,5.5,7.8,72,0.00,,,0.00,WUHU216HW,2013-05-10 20:41:00,
2013-05-10 13:46:00,59.9,50.5,30.16,SSW,203,8.0,10.0,71,0.00,,,0.00,WUHU216HW,2013-05-10 20:46:00,
2013-05-10 13:51:00,59.7,50.7,30.16,SW,225,0.6,10.0,72,0.00,,,0.00,WUHU216HW,2013-05-10 20:51:00,
2013-05-10 13:56:00,59.7,50.7,30.16,SSE,158,0.0,8.0,72,0.00,,,0.00,WUHU216HW,2013-05-10 20:56:00,
2013-05-10 14:01:00,60.0,51.0,30.15,SE,135,6.0,6.9,72,0.00,,,0.00,WUHU216HW,2013-05-10 21:01:00,
2013-05-10 14:07:00,60.4,51.4,30.16,SW,225,7.3,7.3,72,0.00,,,0.00,WUHU216HW,2013-05-10 21:07:00,
2013-05-10 14:12:00,60.6,51.2,30.16,SW,225,0.0,7.3,71,0.00,,,0.00,WUHU216HW,2013-05-10 21:12:00,
2013-05-10 14:17:00,60.4,50.7,30.16,SW,225,6.4,9.1,70,0.00,,,0.00,WUHU216HW,2013-05-10 21:17:00,
2013-05-10 14:22:00,60.4,51.0,30.16,SSE,158,0.6,9.1,71,0.00,,,0.00,WUHU216HW,2013-05-10 21:22:00,
2013-05-10 14:27:00,60.4,51.0,30.16,SW,225,11.4,11.4,70,0.00,,,0.00,WUHU216HW,2013-05-10 21:27:00,
2013-05-10 14:32:00,60.6,50.9,30.16,SW,225,7.8,12.3,70,0.00,,,0.00,WUHU216HW,2013-05-10 21:32:00,
2013-05-10 14:37:00,60.4,50.7,30.16,SW,225,4.9,15.4,70,0.00,,,0.00,WUHU216HW,2013-05-10 21:37:00,
2013-05-10 14:42:00,60.4,50.7,30.15,South,180,0.0,15.4,70,0.00,,,0.00,WUHU216HW,2013-05-10 21:42:00,
2013-05-10 14:47:00,60.6,50.9,30.15,SW,225,3.8,7.6,70,0.00,,,0.00,WUHU216HW,2013-05-10 21:47:00,
2013-05-10 14:53:00,60.9,51.2,30.16,SSW,203,4.6,4.6,70,0.00,,,0.00,WUHU216HW,2013-05-10 21:53:00,
2013-05-10 14:58:00,61.3,51.5,30.15,SSE,158,0.0,4.6,70,0.00,,,0.00,WUHU216HW,2013-05-10 21:58:00,
2013-05-10 14:59:00,61.3,51.5,30.15,SSE,158,0.0,4.6,70,0.00,,,0.00,WUHU216HW,2013-05-10 21:59:00,
2013-05-10 15:04:00,61.3,51.1,30.15,South,180,2.9,13.1,69,0.00,,,0.00,WUHU216HW,2013-05-10 22:04:00,
2013-05-10 15:09:00,61.3,51.1,30.15,WSW,248,9.6,13.1,69,0.00,,,0.00,WUHU216HW,2013-05-10 22:09:00,
2013-05-10 15:14:00,61.1,50.9,30.15,SW,225,11.8,11.8,69,0.00,,,0.00,WUHU216HW,2013-05-10 22:14:00,
2013-05-10 15:19:00,60.9,50.8,30.14,SSW,203,8.7,11.8,69,0.00,,,0.00,WUHU216HW,2013-05-10 22:19:00,
2013-05-10 15:24:00,60.6,50.4,30.15,WSW,248,3.8,8.7,69,0.00,,,0.00,WUHU216HW,2013-05-10 22:24:00,
2013-05-10 15:29:00,60.6,50.9,30.14,South,180,12.0,12.0,70,0.00,,,0.00,WUHU216HW,2013-05-10 22:29:00,
2013-05-10 15:34:00,60.4,50.7,30.15,South,180,5.5,12.0,70,0.00,,,0.00,WUHU216HW,2013-05-10 22:34:00,
2013-05-10 15:39:00,60.4,50.7,30.14,SW,225,5.1,12.0,70,0.00,,,0.00,WUHU216HW,2013-05-10 22:39:00,
2013-05-10 15:45:00,60.4,50.7,30.14,SW,225,0.0,6.2,70,0.00,,,0.00,WUHU216HW,2013-05-10 22:45:00,
2013-05-10 15:50:00,60.2,50.5,30.14,SW,225,5.5,5.5,70,0.00,,,0.00,WUHU216HW,2013-05-10 22:50:00,
2013-05-10 15:55:00,60.4,50.7,30.14,SW,225,8.2,12.5,70,0.00,,,0.00,WUHU216HW,2013-05-10 22:55:00,
2013-05-10 16:00:00,59.9,50.1,30.13,West,270,8.9,12.5,70,0.00,,,0.00,WUHU216HW,2013-05-10 23:00:00,
2013-05-10 16:05:00,59.7,50.0,30.13,South,180,4.0,8.9,70,0.00,,,0.00,WUHU216HW,2013-05-10 23:05:00,
2013-05-10 16:10:00,59.5,50.1,30.13,SSE,158,7.3,8.9,71,0.00,,,0.00,WUHU216HW,2013-05-10 23:10:00,
2013-05-10 16:15:00,59.5,50.1,30.13,South,180,11.8,11.8,71,0.00,,,0.00,WUHU216HW,2013-05-10 23:15:00,
2013-05-10 16:20:00,59.1,49.8,30.13,WSW,248,5.5,11.8,71,0.00,,,0.00,WUHU216HW,2013-05-10 23:20:00,
2013-05-10 16:25:00,59.1,50.1,30.13,SW,225,14.0,14.0,72,0.00,,,0.00,WUHU216HW,2013-05-10 23:25:00,
2013-05-10 16:30:00,58.8,49.8,30.12,SE,135,4.9,14.0,72,0.00,,,0.00,WUHU216HW,2013-05-10 23:30:00,
2013-05-10 16:36:00,58.8,49.8,30.12,East,90,4.6,7.1,72,0.00,,,0.00,WUHU216HW,2013-05-10 23:36:00,
2013-05-10 16:41:00,58.8,49.8,30.12,ESE,113,15.4,15.4,72,0.00,,,0.00,WUHU216HW,2013-05-10 23:41:00,
2013-05-10 16:46:00,59.1,50.1,30.12,SSE,158,1.7,15.4,72,0.00,,,0.00,WUHU216HW,2013-05-10 23:46:00,
2013-05-10 16:51:00,58.8,49.8,30.12,South,180,5.5,10.2,72,0.00,,,0.00,WUHU216HW,2013-05-10 23:51:00,
2013-05-10 16:56:00,58.8,50.1,30.12,SE,135,7.6,8.5,73,0.00,,,0.00,WUHU216HW,2013-05-10 23:56:00,
2013-05-10 17:01:00,58.6,50.0,30.12,SSE,158,5.5,8.5,73,0.00,,,0.00,WUHU216HW,2013-05-11 00:01:00,
2013-05-10 17:06:00,58.8,50.1,30.12,South,180,0.0,7.6,73,0.00,,,0.00,WUHU216HW,2013-05-11 00:06:00,
2013-05-10 17:11:00,58.8,50.1,30.12,South,180,8.2,8.2,73,0.00,,,0.00,WUHU216HW,2013-05-11 00:11:00,
2013-05-10 17:16:00,58.8,50.1,30.12,South,180,10.9,10.9,73,0.00,,,0.00,WUHU216HW,2013-05-11 00:16:00,
2013-05-10 17:22:00,58.8,50.1,30.11,SE,135,4.2,10.9,73,0.00,,,0.00,WUHU216HW,2013-05-11 00:22:00,
2013-05-10 17:27:00,58.8,50.5,30.11,SSW,203,6.0,10.9,74,0.00,,,0.00,WUHU216HW,2013-05-11 00:27:00,
2013-05-10 17:32:00,58.6,50.3,30.12,SW,225,4.6,8.2,74,0.00,,,0.00,WUHU216HW,2013-05-11 00:32:00,
2013-05-10 17:37:00,58.6,50.3,30.12,South,180,3.5,8.2,74,0.00,,,0.00,WUHU216HW,2013-05-11 00:37:00,
2013-05-10 17:42:00,58.8,50.5,30.11,SSE,158,0.0,7.1,74,0.00,,,0.00,WUHU216HW,2013-05-11 00:42:00,
2013-05-10 17:47:00,58.8,50.5,30.11,SE,135,4.0,10.5,74,0.00,,,0.00,WUHU216HW,2013-05-11 00:47:00,
2013-05-10 17:52:00,58.6,50.3,30.11,ESE,113,5.8,10.5,74,0.00,,,0.00,WUHU216HW,2013-05-11 00:52:00,
2013-05-10 17:57:00,58.6,50.3,30.11,SE,135,6.4,9.6,74,0.00,,,0.00,WUHU216HW,2013-05-11 00:57:00,
2013-05-10 18:02:00,58.2,50.0,30.11,SE,135,6.4,9.1,74,0.00,,,0.00,WUHU216HW,2013-05-11 01:02:00,
2013-05-10 18:07:00,57.9,50.0,30.11,SSE,158,5.8,8.7,75,0.00,,,0.00,WUHU216HW,2013-05-11 01:07:00,
2013-05-10 18:12:00,57.9,50.0,30.11,SE,135,6.2,8.7,75,0.00,,,0.00,WUHU216HW,2013-05-11 01:12:00,
2013-05-10 18:18:00,57.7,49.8,30.12,WSW,248,8.7,8.7,75,0.00,,,0.00,WUHU216HW,2013-05-11 01:18:00,
2013-05-10 18:23:00,57.3,49.8,30.11,SSE,158,9.6,13.1,76,0.00,,,0.00,WUHU216HW,2013-05-11 01:23:00,
2013-05-10 18:28:00,57.5,50.0,30.11,South,180,2.0,13.1,76,0.00,,,0.00,WUHU216HW,2013-05-11 01:28:00,
2013-05-10 18:33:00,57.3,49.8,30.11,SSW,203,0.0,9.6,76,0.00,,,0.00,WUHU216HW,2013-05-11 01:33:00,
2013-05-10 18:38:00,57.0,49.4,30.11,South,180,5.5,5.5,76,0.00,,,0.00,WUHU216HW,2013-05-11 01:38:00,
2013-05-10 18:43:00,56.8,49.6,30.11,SSE,158,0.0,5.5,77,0.00,,,0.00,WUHU216HW,2013-05-11 01:43:00,
2013-05-10 18:48:00,56.8,49.6,30.10,SE,135,5.1,5.5,77,0.00,,,0.00,WUHU216HW,2013-05-11 01:48:00,
2013-05-10 18:53:00,56.4,49.2,30.10,ESE,113,0.0,5.1,77,0.00,,,0.00,WUHU216HW,2013-05-11 01:53:00,
2013-05-10 18:58:00,56.3,49.4,30.11,SSE,158,2.0,2.4,78,0.00,,,0.00,WUHU216HW,2013-05-11 01:58:00,
2013-05-10 19:03:00,56.3,49.4,30.11,SSE,158,5.1,5.1,78,0.00,,,0.00,WUHU216HW,2013-05-11 02:03:00,
2013-05-10 19:08:00,56.1,49.2,30.11,SSW,203,4.9,7.3,78,0.00,,,0.00,WUHU216HW,2013-05-11 02:08:00,
2013-05-10 19:13:00,55.9,49.1,30.11,SSE,158,2.2,7.3,78,0.00,,,0.00,WUHU216HW,2013-05-11 02:13:00,
2013-05-10 19:19:00,55.9,49.1,30.11,SSW,203,0.0,5.8,78,0.00,,,0.00,WUHU216HW,2013-05-11 02:19:00,
2013-05-10 19:24:00,55.9,49.1,30.11,SE,135,5.5,8.2,78,0.00,,,0.00,WUHU216HW,2013-05-11 02:24:00,
2013-05-10 19:29:00,55.7,49.2,30.11,SSW,203,3.8,8.2,79,0.00,,,0.00,WUHU216HW,2013-05-11 02:29:00,
2013-05-10 19:34:00,55.5,49.1,30.11,South,180,7.6,7.6,79,0.00,,,0.00,WUHU216HW,2013-05-11 02:34:00,
2013-05-10 19:39:00,55.2,48.7,30.11,SE,135,2.0,7.6,79,0.00,,,0.00,WUHU216HW,2013-05-11 02:39:00,
2013-05-10 19:44:00,55.0,48.5,30.11,West,270,6.2,7.6,79,0.00,,,0.00,WUHU216HW,2013-05-11 02:44:00,
2013-05-10 19:49:00,54.8,48.7,30.11,SSE,158,0.8,6.9,80,0.00,,,0.00,WUHU216HW,2013-05-11 02:49:00,
2013-05-10 19:54:00,54.6,48.6,30.11,SE,135,4.0,5.8,80,0.00,,,0.00,WUHU216HW,2013-05-11 02:54:00,
2013-05-10 19:59:00,54.5,48.4,30.11,South,180,0.0,5.8,80,0.00,,,0.00,WUHU216HW,2013-05-11 02:59:00,
2013-05-10 20:05:00,54.3,48.6,30.12,South,180,1.1,4.0,81,0.00,,,0.00,WUHU216HW,2013-05-11 03:05:00,
2013-05-10 20:10:00,54.3,48.6,30.11,WSW,248,4.9,5.3,81,0.00,,,0.00,WUHU216HW,2013-05-11 03:10:00,
2013-05-10 20:15:00,54.3,48.6,30.11,SSE,158,5.1,5.3,81,0.00,,,0.00,WUHU216HW,2013-05-11 03:15:00,
2013-05-10 20:20:00,54.3,48.6,30.11,SE,135,4.0,5.1,81,0.00,,,0.00,WUHU216HW,2013-05-11 03:20:00,
2013-05-10 20:25:00,54.3,48.6,30.12,SE,135,0.4,6.0,81,0.00,,,0.00,WUHU216HW,2013-05-11 03:25:00,
2013-05-10 20:30:00,54.3,48.6,30.12,ESE,113,5.3,6.4,81,0.00,,,0.00,WUHU216HW,2013-05-11 03:30:00,
2013-05-10 20:35:00,54.3,48.6,30.12,SSE,158,0.0,6.4,81,0.00,,,0.00,WUHU216HW,2013-05-11 03:35:00,
2013-05-10 20:40:00,54.3,48.9,30.11,SSE,158,6.2,6.2,82,0.00,,,0.00,WUHU216HW,2013-05-11 03:40:00,
2013-05-10 20:45:00,54.3,48.9,30.12,South,180,0.4,6.2,82,0.00,,,0.00,WUHU216HW,2013-05-11 03:45:00,
2013-05-10 20:50:00,54.3,48.9,30.12,SE,135,3.8,3.8,82,0.00,,,0.00,WUHU216HW,2013-05-11 03:50:00,
2013-05-10 20:55:00,54.1,48.4,30.12,South,180,2.4,6.7,81,0.00,,,0.00,WUHU216HW,2013-05-11 03:55:00,
2013-05-10 21:01:00,54.1,48.4,30.12,SSW,203,3.8,6.7,81,0.00,,,0.00,WUHU216HW,2013-05-11 04:01:00,
2013-05-10 21:03:00,54.1,48.4,30.12,SSW,203,3.8,6.7,81,0.00,,,0.00,WUHU216HW,2013-05-11 04:03:00,
2013-05-10 21:08:00,54.1,48.4,30.12,SE,135,3.8,7.1,81,0.00,,,0.00,WUHU216HW,2013-05-11 04:08:00,
2013-05-10 21:13:00,54.1,48.4,30.13,SW,225,13.6,13.6,81,0.00,,,0.00,WUHU216HW,2013-05-11 04:13:00,
2013-05-10 21:18:00,54.1,48.4,30.13,SE,135,5.5,13.6,81,0.00,,,0.00,WUHU216HW,2013-05-11 04:18:00,
2013-05-10 21:23:00,53.9,48.2,30.13,South,180,6.4,8.5,81,0.00,,,0.00,WUHU216HW,2013-05-11 04:23:00,
2013-05-10 21:28:00,53.7,48.1,30.13,SSE,158,7.3,8.5,81,0.00,,,0.00,WUHU216HW,2013-05-11 04:28:00,
2013-05-10 21:34:00,53.7,48.1,30.13,South,180,2.9,7.3,81,0.00,,,0.00,WUHU216HW,2013-05-11 04:34:00,
2013-05-10 21:39:00,53.7,48.1,30.13,SE,135,0.0,7.3,81,0.00,,,0.00,WUHU216HW,2013-05-11 04:39:00,
2013-05-10 21:44:00,53.7,48.1,30.14,SE,135,1.1,4.4,81,0.00,,,0.00,WUHU216HW,2013-05-11 04:44:00,
2013-05-10 21:49:00,53.7,48.4,30.13,SSE,158,3.3,4.4,82,0.00,,,0.00,WUHU216HW,2013-05-11 04:49:00,
2013-05-10 21:54:00,53.6,48.2,30.14,South,180,2.4,3.3,82,0.00,,,0.00,WUHU216HW,2013-05-11 04:54:00,
2013-05-10 21:59:00,53.6,48.2,30.13,SE,135,3.8,6.4,82,0.00,,,0.00,WUHU216HW,2013-05-11 04:59:00,
2013-05-10 22:04:00,53.6,48.2,30.13,SE,135,2.9,6.4,82,0.00,,,0.00,WUHU216HW,2013-05-11 05:04:00,
2013-05-10 22:09:00,53.4,48.0,30.13,South,180,5.5,6.2,82,0.00,,,0.00,WUHU216HW,2013-05-11 05:09:00,
2013-05-10 22:14:00,53.4,48.0,30.13,ESE,113,1.5,6.2,82,0.00,,,0.00,WUHU216HW,2013-05-11 05:14:00,
2013-05-10 22:19:00,53.4,48.0,30.13,SSE,158,6.9,6.9,82,0.00,,,0.00,WUHU216HW,2013-05-11 05:19:00,
2013-05-10 22:24:00,53.4,48.0,30.13,SSE,158,0.0,6.9,82,0.00,,,0.00,WUHU216HW,2013-05-11 05:24:00,
2013-05-10 22:29:00,53.4,48.0,30.13,SW,225,6.0,6.0,82,0.00,,,0.00,WUHU216HW,2013-05-11 05:29:00,
2013-05-10 22:35:00,53.4,48.0,30.13,South,180,4.6,6.0,82,0.00,,,0.00,WUHU216HW,2013-05-11 05:35:00,
2013-05-10 22:40:00,53.4,48.0,30.13,South,180,0.4,6.2,82,0.00,,,0.00,WUHU216HW,2013-05-11 05:40:00,
2013-05-10 22:45:00,53.4,48.0,30.13,South,180,0.0,6.2,82,0.00,,,0.00,WUHU216HW,2013-05-11 05:45:00,
2013-05-10 22:50:00,53.4,48.0,30.13,SW,225,0.6,2.2,82,0.00,,,0.00,WUHU216HW,2013-05-11 05:50:00,
2013-05-10 22:55:00,53.4,48.0,30.13,South,180,4.4,6.2,82,0.00,,,0.00,WUHU216HW,2013-05-11 05:55:00,
2013-05-10 23:00:00,53.4,48.3,30.13,South,180,3.8,6.2,83,0.00,,,0.00,WUHU216HW,2013-05-11 06:00:00,
2013-05-10 23:05:00,53.4,48.3,30.13,WSW,248,11.8,11.8,83,0.00,,,0.00,WUHU216HW,2013-05-11 06:05:00,
2013-05-10 23:10:00,53.2,48.2,30.13,ESE,113,0.0,11.8,83,0.00,,,0.00,WUHU216HW,2013-05-11 06:10:00,
2013-05-10 23:15:00,53.2,48.2,30.13,South,180,5.8,5.8,83,0.00,,,0.00,WUHU216HW,2013-05-11 06:15:00,
2013-05-10 23:20:00,53.2,48.2,30.13,South,180,5.1,5.8,83,0.00,,,0.00,WUHU216HW,2013-05-11 06:20:00,
2013-05-10 23:25:00,53.2,48.2,30.13,South,180,2.2,10.2,83,0.00,,,0.00,WUHU216HW,2013-05-11 06:25:00,
2013-05-10 23:30:00,53.0,48.0,30.13,SSE,158,4.4,10.2,83,0.00,,,0.00,WUHU216HW,2013-05-11 06:30:00,
2013-05-10 23:36:00,52.8,47.8,30.13,SSE,158,0.6,6.2,83,0.00,,,0.00,WUHU216HW,2013-05-11 06:36:00,
2013-05-10 23:41:00,52.8,47.8,30.13,WSW,248,0.0,7.3,83,0.00,,,0.00,WUHU216HW,2013-05-11 06:41:00,
2013-05-10 23:46:00,52.8,47.8,30.13,WSW,248,9.8,9.8,83,0.00,,,0.00,WUHU216HW,2013-05-11 06:46:00,
2013-05-10 23:51:00,52.7,47.6,30.14,WSW,248,2.0,9.8,83,0.00,,,0.00,WUHU216HW,2013-05-11 06:51:00,
2013-05-10 23:56:00,52.5,47.4,30.14,SSE,158,4.2,9.8,83,0.00,,,0.00,WUHU216HW,2013-05-11 06:56:00,